Location: Unspecified
(0.0000°N, 0.0000°E)
Time: 21:14:35
(UTC+00:00)

COSMOS 1275 DEB - Pass Details

Date: 24 March 2026
Orbit: 902 x 973 km, 82.9° (Epoch: 8 April)

Event Time Altitude Azimuth Distance (km) Brightness Sun altitude
Rises 05:33:23 0° 171° (S) 3,524 ? -8.2°
Reaches altitude 10° 05:35:57 10° 165° (SSE) 2,585 ? -7.6°
Maximum altitude 05:41:32 46° 93° (E) 1,208 ? -6.2°
Drops below altitude 10° 05:47:09 10° 21° (NNE) 2,605 ? -4.8°
Sets 05:49:43 0° 15° (NNE) 3,555 ? -4.2°
